JA1KWV-11 Weather Reports


Display with metric or nautical units.
time (UTC)temp
F
wind
direction
speed
MPH
gust
MPH
rain 1hr
in
rain 24hr
in
rain mn
in
humidity
%
barometer
mb
20260503025154 74 267 0.0 0.0 0.00 0.00 0.00 72 1010.3
20260503024354 74 267 0.0 0.0 0.00 0.00 0.00 73 1010.3
20260503023554 74 267 0.0 0.0 0.00 0.00 0.00 71 1010.5
20260503022754 74 267 0.0 0.0 0.00 0.00 0.00 69 1010.6
20260503021953 74 267 0.0 0.0 0.00 0.00 0.00 66 1010.6
20260503021153 74 267 0.0 0.0 0.00 0.00 0.00 66 1010.9
20260503020353 74 267 0.0 0.0 0.00 0.00 0.00 67 1011.0
20260503015553 74 267 0.0 0.0 0.00 0.00 0.00 66 1011.4
20260503014752 74 267 0.0 0.0 0.00 0.00 0.00 68 1011.3
20260503013952 74 267 0.0 0.0 0.00 0.00 0.00 67 1011.5
20260503013152 74 267 0.0 0.0 0.00 0.00 0.00 68 1011.7
20260503012352 74 267 0.0 0.0 0.00 0.00 0.00 67 1011.8
20260503011552 74 267 0.0 0.0 0.00 0.00 0.00 68 1012.0
20260503010751 74 267 0.0 0.0 0.00 0.00 0.00 67 1012.1
20260503005951 74 267 0.0 0.0 0.00 0.00 0.00 67 1012.2
20260503005151 74 267 0.0 0.0 0.00 0.00 0.00 67 1012.4
20260503004351 74 267 0.0 0.0 0.00 0.00 0.00 67 1012.5
20260503003550 74 267 0.0 0.0 0.00 0.00 0.00 67 1012.3
20260503002750 74 267 0.0 0.0 0.00 0.00 0.00 68 1012.4
20260503001950 74 267 0.0 0.0 0.00 0.00 0.00 67 1012.3
20260503001150 74 267 0.0 0.0 0.00 0.00 0.00 66 1012.5
20260503000350 74 267 0.0 0.0 0.00 0.00 0.00 67 1012.7
20260502235549 74 267 0.0 0.0 0.00 0.00 0.00 67 1012.4
20260502234749 74 267 0.0 0.0 0.00 0.00 0.00 66 1012.8
20260502233949 74 267 0.0 0.0 0.00 0.00 0.00 67 1012.8
20260502233149 74 267 0.0 0.0 0.00 0.00 0.00 67 1012.8
20260502232348 74 267 0.0 0.0 0.00 0.00 0.00 67 1012.8
20260502231548 74 267 0.0 0.0 0.00 0.00 0.00 67 1012.7
20260502230748 74 267 0.0 0.0 0.00 0.00 0.00 66 1012.7
20260502225948 74 267 0.0 0.0 0.00 0.00 0.00 66 1012.9
20260502225148 74 267 0.0 0.0 0.00 0.00 0.00 66 1013.0
20260502224347 74 267 0.0 0.0 0.00 0.00 0.00 66 1013.1
20260502223547 74 267 0.0 0.0 0.00 0.00 0.00 67 1013.3
20260502222747 74 267 0.0 0.0 0.00 0.00 0.00 66 1013.2
20260502221947 74 267 0.0 0.0 0.00 0.00 0.00 66 1013.3
20260502221147 74 267 0.0 0.0 0.00 0.00 0.00 66 1012.8
20260502220346 74 267 0.0 0.0 0.00 0.00 0.00 66 1013.0
20260502215546 74 267 0.0 0.0 0.00 0.00 0.00 66 1012.9
20260502214746 74 267 0.0 0.0 0.00 0.00 0.00 65 1012.8
20260502213946 74 267 0.0 0.0 0.00 0.00 0.00 66 1012.8
20260502213145 74 267 0.0 0.0 0.00 0.00 0.00 66 1012.8
20260502212345 74 267 0.0 0.0 0.00 0.00 0.00 65 1012.6
20260502211545 74 267 0.0 0.0 0.00 0.00 0.00 65 1012.8
20260502210745 74 267 0.0 0.0 0.00 0.00 0.00 66 1012.8
20260502205945 74 267 0.0 0.0 0.00 0.00 0.00 65 1012.5
20260502205144 74 267 0.0 0.0 0.00 0.00 0.00 65 1012.6
20260502204344 74 267 0.0 0.0 0.00 0.00 0.00 66 1012.3
20260502203544 74 267 0.0 0.0 0.00 0.00 0.00 65 1012.4
20260502202744 74 267 0.0 0.0 0.00 0.00 0.00 64 1012.2
20260502201943 74 267 0.0 0.0 0.00 0.00 0.00 66 1012.0
20260502201143 74 267 0.0 0.0 0.00 0.00 0.00 66 1012.0
20260502200343 74 267 0.0 0.0 0.00 0.00 0.00 66 1011.8
20260502195543 74 267 0.0 0.0 0.00 0.00 0.00 65 1011.9
20260502194743 74 267 0.0 0.0 0.00 0.00 0.00 64 1012.1
20260502193942 74 267 0.0 0.0 0.00 0.00 0.00 65 1011.9
20260502193142 74 267 0.0 0.0 0.00 0.00 0.00 65 1011.8
20260502192342 74 267 0.0 0.0 0.00 0.00 0.00 64 1012.1
20260502191542 74 267 0.0 0.0 0.00 0.00 0.00 65 1011.9
20260502190741 74 267 0.0 0.0 0.00 0.00 0.00 65 1012.0
20260502185941 74 267 0.0 0.0 0.00 0.00 0.00 65 1012.1
20260502185141 74 267 0.0 0.0 0.00 0.00 0.00 65 1011.9
20260502184341 74 267 0.0 0.0 0.00 0.00 0.00 65 1011.8
20260502183541 74 267 0.0 0.0 0.00 0.00 0.00 65 1012.0
20260502182740 74 267 0.0 0.0 0.00 0.00 0.00 65 1011.7
20260502181940 74 267 0.0 0.0 0.00 0.00 0.00 64 1012.1
20260502181140 74 267 0.0 0.0 0.00 0.00 0.00 65 1011.6
20260502180340 74 267 0.0 0.0 0.00 0.00 0.00 65 1011.4
20260502164337 74 267 0.0 0.0 0.00 0.00 0.00 64 1011.4
20260502163537 74 267 0.0 0.0 0.00 0.00 0.00 64 1011.4
20260502162737 74 267 0.0 0.0 0.00 0.00 0.00 64 1011.4
20260502161937 74 267 0.0 0.0 0.00 0.00 0.00 65 1011.3
20260502161137 74 267 0.0 0.0 0.00 0.00 0.00 63 1011.4
20260502160336 74 267 0.0 0.0 0.00 0.00 0.00 64 1011.5
20260502152335 74 267 0.0 0.0 0.00 0.00 0.00 63 1011.5
20260502151535 74 267 0.0 0.0 0.00 0.00 0.00 63 1011.8
20260502150735 74 267 0.0 0.0 0.00 0.00 0.00 63 1011.8
20260502130732 74 267 0.0 0.0 0.00 0.00 0.00 61 1011.5
20260502123531 74 267 0.0 0.0 0.00 0.00 0.00 61 1011.1
20260502122730 74 267 0.0 0.0 0.00 0.00 0.00 60 1010.9
20260502121930 74 267 0.0 0.0 0.00 0.00 0.00 61 1011.0
20260502121130 74 267 0.0 0.0 0.00 0.00 0.00 60 1011.0
20260502120330 74 267 0.0 0.0 0.00 0.00 0.00 61 1010.7
20260502115530 74 267 0.0 0.0 0.00 0.00 0.00 61 1010.6
20260502114729 74 267 0.0 0.0 0.00 0.00 0.00 60 1010.5
20260502113929 74 267 0.0 0.0 0.00 0.00 0.00 59 1010.4
20260502113129 74 267 0.0 0.0 0.00 0.00 0.00 59 1010.2
20260502112329 74 267 0.0 0.0 0.00 0.00 0.00 59 1010.0
20260502111529 74 267 0.0 0.0 0.00 0.00 0.00 59 1009.9
20260502110728 74 267 0.0 0.0 0.00 0.00 0.00 58 1009.8
20260502105928 74 267 0.0 0.0 0.00 0.00 0.00 59 1009.8
20260502105128 74 267 0.0 0.0 0.00 0.00 0.00 59 1009.5
20260502104328 74 267 0.0 0.0 0.00 0.00 0.00 59 1009.1
20260502103527 74 267 0.0 0.0 0.00 0.00 0.00 58 1009.1
20260502102727 74 267 0.0 0.0 0.00 0.00 0.00 59 1009.1
20260502101927 74 267 0.0 0.0 0.00 0.00 0.00 59 1008.9
20260502101127 74 267 0.0 0.0 0.00 0.00 0.00 59 1009.2
20260502100326 74 267 0.0 0.0 0.00 0.00 0.00 60 1008.9
20260502091525 74 267 0.0 0.0 0.00 0.00 0.00 61 1008.4
20260502090725 74 267 0.0 0.0 0.00 0.00 0.00 60 1008.3
20260502071522 74 267 0.0 0.0 0.00 0.00 0.00 61 1007.0
20260502070722 74 267 0.0 0.0 0.00 0.00 0.00 62 1007.0
20260502065922 74 267 0.0 0.0 0.00 0.00 0.00 62 1007.0
20260502065121 74 267 0.0 0.0 0.00 0.00 0.00 60 1007.0
20260502064321 74 267 0.0 0.0 0.00 0.00 0.00 61 1006.9
20260502063521 73 267 0.0 0.0 0.00 0.00 0.00 62 1006.8
20260502062721 73 267 0.0 0.0 0.00 0.00 0.00 62 1006.6
20260502061920 73 267 0.0 0.0 0.00 0.00 0.00 62 1006.4
20260502061120 73 267 0.0 0.0 0.00 0.00 0.00 63 1006.5
20260502060320 73 267 0.0 0.0 0.00 0.00 0.00 63 1006.3
20260502055520 73 267 0.0 0.0 0.00 0.00 0.00 63 1006.3
20260502054719 73 267 0.0 0.0 0.00 0.00 0.00 63 1006.3
20260502053919 73 267 0.0 0.0 0.00 0.00 0.00 63 1006.0
20260502053119 73 267 0.0 0.0 0.00 0.00 0.00 63 1006.0
20260502052319 73 267 0.0 0.0 0.00 0.00 0.00 63 1006.1
20260502051519 73 267 0.0 0.0 0.00 0.00 0.00 63 1006.0
20260502050718 73 267 0.0 0.0 0.00 0.00 0.00 63 1005.7
20260502045918 73 267 0.0 0.0 0.00 0.00 0.00 63 1005.5
20260502045118 73 267 0.0 0.0 0.00 0.00 0.00 64 1005.6
20260502044318 73 267 0.0 0.0 0.00 0.00 0.00 63 1005.6
20260502043518 73 267 0.0 0.0 0.00 0.00 0.00 63 1005.4
20260502042717 73 267 0.0 0.0 0.00 0.00 0.00 64 1005.3
20260502041917 73 267 0.0 0.0 0.00 0.00 0.00 65 1005.1
20260502041117 73 267 0.0 0.0 0.00 0.00 0.00 65 1005.4
20260502040317 73 267 0.0 0.0 0.00 0.00 0.00 66 1005.2
20260502035516 73 267 0.0 0.0 0.00 0.00 0.00 66 1005.2
20260502034716 73 267 0.0 0.0 0.00 0.00 0.00 67 1005.1
20260502033916 73 267 0.0 0.0 0.00 0.00 0.00 68 1005.3
20260502033116 73 267 0.0 0.0 0.00 0.00 0.00 69 1004.9
20260502032316 73 267 0.0 0.0 0.00 0.00 0.00 70 1004.8
20260502031515 73 267 0.0 0.0 0.00 0.00 0.00 71 1004.7
20260502030715 73 267 0.0 0.0 0.00 0.00 0.00 71 1004.4
20260502025915 73 267 0.0 0.0 0.00 0.00 0.00 71 1004.5